SV1DOD Weather Reports


time (UTC)temp
C
wind
direction
speed
KPH
gust
KPH
rain 1hr
cm
rain 24hr
cm
rain mn
cm
humidity
%
barometer
mb
20260504045018 6 153 4.8 11.3 0.00 0.38 0.00 73 1019.7
20260504044016 6 188 8.0 14.5 0.00 0.38 0.00 73 1019.7
20260504043016 6 197 12.9 17.7 0.00 0.38 0.00 74 1019.6
20260504042017 6 196 9.7 17.7 0.00 0.38 0.00 73 1019.5
20260504041018 6 194 9.7 14.5 0.00 0.38 0.00 73 1019.4
20260504040018 6 192 8.0 12.9 0.00 0.38 0.00 74 1019.3
20260504035018 6 186 8.0 12.9 0.00 0.38 0.00 74 1019.2
20260504034016 6 187 6.4 12.9 0.00 0.38 0.00 73 1019.0
20260504033038 6 170 4.8 9.7 0.00 0.38 0.00 74 1019.0
20260504032018 6 190 6.4 14.5 0.00 0.38 0.00 74 1019.0
20260504031018 6 191 8.0 14.5 0.00 0.41 0.00 74 1019.0
20260504030017 6 193 6.4 11.3 0.00 0.41 0.00 74 1019.0
20260504025018 6 178 3.2 6.4 0.00 0.41 0.00 74 1019.0
20260504024018 6 162 3.2 12.9 0.00 0.41 0.00 74 1019.0
20260504023037 6 190 9.7 16.1 0.00 0.41 0.00 74 1019.0
20260504022016 6 176 8.0 16.1 0.00 0.41 0.00 73 1018.9
20260504021038 6 175 9.7 17.7 0.00 0.41 0.00 73 1019.0
20260504020018 6 190 8.0 14.5 0.00 0.41 0.00 73 1019.0
20260504015018 6 191 8.0 11.3 0.00 0.41 0.00 73 1018.9
20260504014038 6 184 8.0 12.9 0.00 0.41 0.00 73 1018.9
20260504013016 6 185 6.4 11.3 0.00 0.41 0.00 73 1018.9
20260504012016 6 174 6.4 14.5 0.00 0.41 0.00 72 1018.8
20260504011018 6 174 6.4 17.7 0.00 0.41 0.00 73 1018.7
20260504010016 6 166 8.0 19.3 0.00 0.41 0.00 75 1018.6
20260504005018 6 166 8.0 20.9 0.00 0.41 0.00 76 1018.6
20260504004018 5 165 8.0 20.9 0.00 0.41 0.00 76 1018.6
20260504003016 6 185 9.7 16.1 0.00 0.41 0.00 74 1018.7
20260504002058 6 197 9.7 17.7 0.00 0.41 0.00 74 1018.8
20260504001017 6 196 11.3 19.3 0.00 0.41 0.00 75 1018.7
20260504000016 6 192 11.3 19.3 0.00 0.41 0.00 75 1018.7
20260503235016 6 195 11.3 16.1 0.00 0.41 0.00 75 1018.7
20260503234016 6 180 9.7 22.5 0.00 0.41 0.00 75 1018.7
20260503233016 6 180 11.3 17.7 0.00 0.41 0.00 76 1018.8
20260503232016 6 185 9.7 17.7 0.00 0.41 0.00 74 1018.9
20260503231018 7 180 8.0 16.1 0.00 0.41 0.00 74 1018.8
20260503230016 7 189 8.0 12.9 0.00 0.41 0.00 74 1018.9
20260503225016 7 181 9.7 17.7 0.00 0.41 0.00 74 1018.9
20260503224018 7 177 8.0 20.9 0.00 0.41 0.00 74 1019.1
20260503223038 7 186 11.3 17.7 0.00 0.41 0.00 74 1019.1
20260503222016 7 191 8.0 14.5 0.00 0.41 0.00 73 1019.1
20260503221036 7 185 6.4 16.1 0.00 0.41 0.00 74 1019.2
20260503220017 7 179 6.4 14.5 0.00 0.41 0.00 75 1019.1
20260503215018 7 172 8.0 17.7 0.00 0.41 0.00 76 1019.2
20260503214018 7 178 8.0 19.3 0.00 0.41 0.00 76 1019.1
20260503213016 7 211 12.9 19.3 0.00 0.41 0.00 74 1019.2
20260503212018 7 188 8.0 14.5 0.00 0.41 0.00 74 1019.1
20260503211016 7 186 6.4 14.5 0.00 0.41 0.00 73 1019.1
20260503210016 8 188 9.7 14.5 0.00 0.41 0.41 72 1019.1
20260503205015 8 177 6.4 16.1 0.00 0.41 0.41 74 1019.0
20260503204015 7 190 9.7 17.7 0.00 0.41 0.41 74 1019.0
20260503203037 8 183 12.9 22.5 0.00 0.41 0.41 74 1019.1
20260503202016 7 176 9.7 17.7 0.00 0.41 0.41 75 1019.2
20260503201015 7 170 9.7 17.7 0.00 0.41 0.41 75 1019.3
20260503200016 8 175 9.7 22.5 0.00 0.41 0.41 74 1019.4
20260503195017 8 183 9.7 17.7 0.00 0.41 0.41 74 1019.4
20260503194037 8 164 8.0 19.3 0.00 0.41 0.41 74 1019.3
20260503193017 8 174 9.7 19.3 0.00 0.41 0.41 74 1019.3
20260503192035 8 4 11.3 19.3 0.00 0.41 0.41 73 1019.3
20260503191016 8 0 8.0 19.3 0.00 0.41 0.41 74 1019.3
20260503190017 8 0 9.7 22.5 0.00 0.41 0.41 74 1019.3
20260503185015 9 0 11.3 19.3 0.00 0.41 0.41 73 1019.3
20260503184015 9 0 9.7 19.3 0.00 0.41 0.41 74 1019.2
20260503183015 10 0 9.7 17.7 0.00 0.41 0.41 72 1019.1
20260503182017 10 0 12.9 17.7 0.00 0.41 0.41 71 1019.0
20260503181016 10 0 6.4 14.5 0.00 0.41 0.41 70 1018.8
20260503180015 11 0 6.4 9.7 0.00 0.41 0.41 68 1018.8
20260503175015 11 0 3.2 6.4 0.00 0.41 0.41 68 1018.7
20260503174017 11 0 3.2 8.0 0.00 0.41 0.41 67 1018.6
20260503173016 12 0 3.2 8.0 0.00 0.41 0.41 64 1018.5
20260503172015 13 0 1.6 4.8 0.00 0.41 0.41 61 1018.4
20260503171015 14 0 0.0 3.2 0.00 0.41 0.41 58 1018.3
20260503131015 13 346 8.0 16.1 0.00 0.41 0.41 62 1018.7
20260503081515 8 1 6.4 19.3 0.23 0.33 0.33 77 1019.4
20260503080517 8 0 6.4 14.5 0.23 0.28 0.28 78 1019.2
20260503072516 10 0 3.2 6.4 0.15 0.15 0.15 78 1018.4
20260503071516 10 0 3.2 6.4 0.05 0.08 0.08 77 1018.3
20260503070518 10 0 1.6 3.2 0.03 0.05 0.05 77 1018.1
20260503054517 9 0 4.8 8.0 0.00 0.05 0.03 78 1017.5
20260503053537 9 0 4.8 14.5 0.00 0.05 0.03 77 1017.4
20260503052515 9 0 4.8 9.7 0.00 0.05 0.03 77 1017.3